GFSMW_850_thetae_093.txt.gz
Theta_e
315 314 316 318 319 319 319 319 327 337 339 340 337 333 333 336 332 327 323 324 325 327 330 330 330 329 330 329 328 327 326 325 325 326 326 325 323 322 321 321 321 321 318
315 315 316 317 319 320 319 321 326 338 338 338 336 334 334 335 332 328 326 330 325 327 327 330 329 328 329 329 328 327 326 325 325 326 325 322 322 321 320 320 320 320 318
315 316 316 317 319 320 320 323 326 338 336 338 337 338 337 335 332 329 325 327 324 327 327 327 326 326 326 328 328 327 326 325 325 325 322 322 321 320 319 320 320 320 320
324 320 317 319 320 320 320 323 327 338 336 338 336 335 334 336 331 328 326 322 326 330 327 326 325 326 326 328 328 328 327 325 326 323 323 322 321 320 321 319 320 320 320
325 326 326 324 321 320 322 327 334 336 334 336 336 335 335 334 330 329 327 324 326 326 326 327 326 327 328 328 327 326 327 324 323 322 323 322 321 320 320 321 321 321 322
323 324 325 327 325 323 332 334 336 334 334 335 336 334 335 332 331 328 326 326 326 326 326 325 325 326 326 327 326 325 327 326 323 323 323 322 321 320 319 319 318 320 320
321 321 322 326 326 325 329 334 336 336 334 336 336 333 334 333 330 327 328 326 325 326 326 328 326 327 326 325 326 326 327 326 326 323 323 322 321 319 319 320 319 319 319
319 319 321 324 326 327 325 333 330 333 334 336 335 334 333 332 329 328 327 325 324 324 326 324 324 323 324 326 326 326 325 324 326 324 324 323 321 321 321 321 321 321 321
314 316 321 324 329 330 333 333 331 332 330 331 334 334 332 331 329 328 327 324 324 325 324 323 323 322 322 323 324 325 325 324 324 325 323 323 321 321 323 322 322 322 322
312 314 317 321 324 329 332 331 332 333 330 330 332 332 331 330 328 327 326 325 324 324 324 325 324 323 323 322 324 324 324 324 324 325 322 323 319 322 319 322 321 321 321
307 311 314 317 321 325 328 329 329 325 328 328 331 330 330 329 328 326 324 325 325 325 323 323 323 323 322 322 322 323 323 324 324 324 323 321 321 321 319 321 321 321 320
303 306 310 314 317 322 325 328 329 330 328 328 331 333 330 328 326 323 324 324 324 323 322 322 322 322 321 322 321 322 323 323 322 324 323 322 322 320 322 321 320 317 316
301 303 307 309 310 315 319 324 324 328 328 330 331 329 327 326 324 323 324 323 323 322 321 321 321 322 322 322 322 321 322 322 322 322 322 323 319 321 320 317 316 316 316
298 298 301 304 306 308 315 319 323 326 327 329 327 326 325 323 323 323 323 322 322 321 321 321 321 322 322 322 322 321 321 322 321 321 322 321 320 319 319 315 316 317 315
296 294 296 298 303 305 308 313 318 323 324 324 325 324 323 323 322 321 322 322 321 320 322 320 320 322 322 321 321 320 320 320 320 319 318 319 319 318 317 316 314 314 314
293 293 294 296 298 301 303 307 310 318 322 323 323 324 323 323 322 322 323 322 322 320 320 322 322 319 320 320 321 320 319 318 318 318 318 317 316 315 315 315 316 317 317
292 292 292 293 295 298 299 304 304 308 316 317 319 321 322 321 321 321 322 322 321 320 320 319 319 319 320 320 320 320 320 319 319 319 318 317 317 317 317 317 317 317 317
292 292 292 293 295 296 298 300 303 304 308 309 312 313 317 317 319 320 320 320 319 318 319 319 318 319 319 319 319 319 319 320 319 317 317 317 317 316 316 317 317 316 315
292 292 292 294 294 295 295 298 301 301 304 303 303 303 305 308 309 313 316 314 314 314 314 314 314 313 317 317 316 316 317 317 317 315 314 313 312 311 310 310 310 309 308
291 292 293 293 295 295 295 298 298 299 299 300 299 300 301 300 298 299 302 305 306 306 304 306 306 305 305 305 307 308 312 312 310 308 307 306 306 305 304 304 303 303 301
290 291 292 291 292 294 295 296 296 295 295 298 298 299 298 299 299 296 295 297 299 299 299 299 298 298 298 300 301 302 301 305 304 302 300 299 300 300 299 299 299 299 297
289 289 289 289 290 291 293 293 294 293 295 296 297 296 296 296 297 297 294 294 297 297 297 296 296 296 293 299 299 297 297 296 299 296 294 294 294 294 294 295 294 293 293
288 288 288 288 288 289 291 292 291 293 294 295 295 294 294 294 294 295 295 292 292 293 294 294 294 292 291 293 293 294 293 292 293 293 291 291 291 291 292 291 290 290 290
287 287 288 288 288 288 288 288 289 290 292 293 293 293 293 292 292 293 293 293 292 292 291 291 291 291 290 290 290 291 292 290 290 290 290 289 289 289 288 287 287 286 285
286 286 287 287 287 288 288 289 289 290 290 291 290 290 291 292 292 292 291 292 291 291 291 291 290 290 290 288 288 289 289 289 289 288 287 288 288 287 285 284 282 281 281
286 286 286 287 287 287 287 287 288 289 288 288 287 286 287 286 286 287 288 288 287 288 289 289 289 288 287 286 286 286 285 285 283 284 284 283 282 282 281 281 280 279 279

GFSMW_850_thetae_096.txt.gz
Theta_e
313 314 314 314 316 315 317 317 318 320 324 334 335 337 335 334 337 333 328 328 326 325 329 329 331 332 331 330 330 329 329 327 326 326 326 326 326 327 327 324 322 320 319
314 314 314 315 315 317 316 317 318 319 321 327 330 333 337 336 334 329 328 326 326 325 327 327 330 330 330 330 330 329 328 328 327 325 325 325 324 326 326 322 321 320 320
316 316 313 315 316 315 317 317 318 318 320 321 333 333 335 334 334 333 330 325 326 323 328 328 328 329 329 328 329 329 328 327 325 325 324 323 321 324 323 322 321 320 319
323 321 317 314 315 316 317 317 319 319 320 324 332 330 335 334 332 333 330 327 330 333 330 329 328 329 327 326 327 327 327 327 326 325 325 324 322 322 321 322 321 320 320
321 321 324 324 323 320 318 319 320 321 323 326 330 330 336 334 332 333 330 328 326 330 331 328 328 327 326 326 326 326 326 326 326 325 324 323 322 321 321 321 321 320 320
319 319 319 323 325 325 325 325 322 323 325 331 333 336 334 334 334 333 331 328 325 323 330 329 327 325 325 325 326 326 326 325 325 326 324 323 321 321 320 320 320 319 319
317 319 321 322 326 327 330 335 332 332 329 334 334 335 334 335 335 334 330 328 324 324 324 323 324 325 325 325 326 326 327 326 325 325 325 322 322 322 320 320 319 320 320
317 318 317 320 325 328 328 335 334 331 331 333 333 332 335 336 335 331 329 327 324 324 323 325 325 324 325 325 324 325 325 325 325 326 325 323 322 321 321 320 319 320 320
308 309 316 318 320 324 329 330 334 330 330 330 330 331 332 334 332 331 329 327 326 324 324 324 325 324 325 324 326 323 323 326 323 324 325 322 323 322 321 320 319 319 319
304 308 312 315 318 321 326 330 331 330 330 331 329 329 332 333 332 331 328 327 326 325 325 324 323 322 322 322 322 322 324 325 324 325 324 324 323 322 320 320 320 321 322
300 302 306 312 315 319 323 326 330 331 329 330 330 329 330 332 330 329 328 327 326 323 323 323 324 323 323 322 321 323 323 324 325 325 323 324 323 321 320 322 322 322 321
298 301 303 307 313 316 322 324 327 325 321 320 327 327 329 330 328 327 327 326 324 324 324 323 322 322 322 322 322 322 323 323 324 323 324 324 323 322 321 322 322 321 317
296 299 302 303 307 310 314 320 324 326 326 325 325 326 329 329 328 326 323 322 323 323 322 321 321 321 322 321 321 321 321 322 322 323 324 324 323 321 321 321 320 320 320
295 295 298 299 302 306 308 312 317 323 326 327 328 329 329 327 325 323 323 324 323 323 322 320 320 321 322 321 321 321 321 322 322 323 323 323 323 320 321 321 318 321 319
293 293 294 296 298 303 306 308 311 316 323 325 327 326 325 324 323 323 323 323 323 322 321 320 320 321 322 322 322 321 321 321 321 321 322 322 322 321 321 321 318 318 318
292 292 293 295 296 298 301 304 307 310 315 322 324 323 324 323 323 322 322 322 322 321 320 320 319 320 321 321 320 320 320 320 320 320 320 320 320 320 320 319 319 318 316
290 292 292 293 294 296 298 301 303 305 308 315 318 321 323 323 322 322 322 322 322 321 320 319 321 320 320 320 320 320 320 319 318 318 318 318 318 317 317 316 316 316 316
289 291 293 293 294 295 298 299 300 303 304 305 306 312 317 320 319 320 321 321 321 321 320 320 319 319 318 319 320 319 319 319 318 318 317 317 317 317 317 317 317 316 316
290 291 292 293 295 295 296 298 298 300 301 301 301 301 303 309 307 313 307 309 314 316 316 316 317 316 318 318 317 317 318 318 317 316 316 315 316 315 314 313 313 314 312
289 290 291 292 294 294 295 297 296 297 297 298 299 300 300 302 302 301 300 300 302 303 305 308 309 308 312 311 310 310 313 313 311 308 309 307 307 305 305 306 307 307 306
288 290 291 291 291 293 295 295 294 294 294 295 297 299 301 299 300 300 300 299 297 296 296 297 298 300 302 302 303 303 303 303 301 300 297 298 299 299 299 300 300 302 300
289 289 289 290 290 291 293 292 292 292 293 294 295 295 297 297 298 298 297 297 298 299 296 295 294 295 295 298 298 298 299 298 300 297 295 294 294 296 298 297 297 297 296
288 289 289 289 289 289 290 291 290 291 292 293 293 293 294 294 294 295 294 295 295 294 294 295 294 293 291 293 294 295 296 295 295 294 293 294 293 293 292 294 291 291 291
288 288 289 289 288 289 289 289 290 291 291 291 291 292 292 292 293 293 293 293 293 294 293 292 292 291 291 290 291 291 291 292 293 292 291 290 291 290 289 288 287 287 286
287 287 287 287 287 288 288 288 289 290 291 291 290 291 291 292 291 291 291 291 290 291 291 290 290 290 289 288 289 290 289 289 290 290 290 290 288 285 283 282 281 281 280
286 286 286 286 287 287 287 287 287 287 288 288 287 286 286 286 287 289 289 288 288 288 289 288 289 288 287 286 287 286 286 285 284 285 285 283 281 280 279 279 279 279 278

GFSMW_850_thetae_102.txt.gz
Theta_e
310 311 312 313 313 313 313 313 314 313 314 314 322 330 334 328 329 335 333 326 324 326 326 327 326 329 331 331 332 332 330 331 329 328 327 327 327 326 326 326 325 325 325
315 316 317 318 318 317 315 314 315 313 313 314 316 317 323 328 324 332 334 332 326 328 328 328 327 327 331 330 333 333 330 329 329 328 327 327 326 325 326 325 325 325 325
316 317 319 319 321 320 317 316 313 312 313 314 316 323 327 331 333 330 335 334 329 330 331 329 329 329 333 331 333 334 333 329 328 326 327 325 325 326 325 324 325 325 325
313 313 315 317 318 320 324 320 316 313 312 314 317 320 322 323 322 323 330 334 333 332 334 331 330 330 332 331 331 333 332 330 327 327 327 326 325 324 324 325 324 325 325
310 312 313 314 316 319 320 325 322 318 314 315 316 316 318 322 322 321 323 333 331 330 335 334 331 329 327 329 330 331 332 329 328 327 326 327 325 324 324 322 323 325 324
309 310 311 313 315 318 319 320 325 324 318 325 317 318 317 319 325 328 326 332 332 331 332 332 329 326 326 330 332 331 330 328 328 328 329 327 325 325 324 323 322 324 323
307 307 309 309 312 315 319 320 322 326 323 323 325 318 322 322 323 324 325 331 331 331 332 331 328 326 324 327 325 329 330 326 327 327 326 328 326 325 324 323 323 322 323
305 305 306 306 305 309 314 321 321 324 327 328 330 329 330 326 326 329 332 331 330 328 328 331 327 325 326 326 326 325 329 325 325 326 325 324 326 326 324 324 323 322 321
300 302 305 304 302 308 313 318 320 324 331 334 337 336 336 330 330 328 330 331 331 331 330 330 327 328 324 326 325 329 327 325 325 324 324 324 324 323 325 324 323 323 321
298 301 301 302 302 304 311 316 319 323 329 333 335 336 331 334 331 330 332 331 330 329 330 328 326 323 324 324 326 325 325 326 325 323 322 322 323 324 323 323 323 323 322
296 296 299 301 301 303 307 311 314 318 326 331 330 334 333 330 329 331 331 329 328 328 330 326 323 323 322 322 322 323 323 323 323 322 322 322 323 322 324 324 323 322 321
295 295 296 298 300 302 305 308 312 319 322 327 326 327 327 327 327 327 327 327 327 328 326 324 323 323 323 323 323 323 323 322 321 320 322 321 322 323 322 323 324 321 321
294 293 294 295 296 299 302 305 310 314 320 322 324 326 326 323 323 326 326 328 327 326 326 325 323 323 323 322 322 322 321 321 320 321 322 323 323 322 321 323 323 323 321
292 292 292 292 294 297 299 302 305 309 314 321 321 323 323 324 324 325 323 328 327 327 325 322 323 322 320 320 320 319 320 320 321 321 321 322 322 320 323 323 322 322 322
291 291 291 291 292 295 298 300 302 305 309 315 321 324 326 324 324 323 323 326 325 323 323 323 320 319 318 319 321 320 320 320 321 321 321 321 322 320 322 322 322 322 321
290 291 291 291 291 293 295 297 300 302 305 308 314 315 321 323 324 323 325 323 322 323 323 321 320 319 318 320 320 321 320 319 319 320 320 320 321 321 321 323 322 322 322
289 290 291 291 292 292 293 295 297 300 302 305 306 309 310 312 320 322 323 323 323 324 322 321 320 319 318 318 320 319 320 319 319 318 319 319 320 320 320 320 319 320 319
290 290 291 292 293 293 294 295 297 297 300 302 304 305 304 305 305 306 312 318 320 319 320 320 320 319 318 319 319 320 319 319 319 318 317 317 318 318 319 320 320 320 320
289 289 290 291 293 294 294 295 296 297 298 299 300 301 303 304 305 302 300 302 313 315 315 314 314 315 316 316 316 317 318 318 317 316 315 315 316 316 316 316 317 317 316
289 290 290 291 292 293 293 294 294 295 295 296 296 298 299 301 303 302 301 300 302 301 300 301 302 303 307 305 305 310 313 315 314 312 311 310 311 311 312 310 311 312 309
289 289 290 290 290 292 293 293 293 293 292 293 295 297 298 298 297 298 299 300 300 301 300 300 300 300 300 299 298 303 304 305 304 303 302 301 301 302 303 304 304 305 301
289 289 290 290 291 291 291 291 291 291 293 294 294 294 295 296 296 297 297 297 296 296 295 296 296 296 297 296 296 297 299 298 300 298 297 296 297 298 299 299 297 296 297
288 288 289 289 289 290 291 290 289 291 292 294 294 293 293 294 294 295 295 295 295 295 294 293 292 292 292 292 293 293 294 295 296 294 294 294 295 296 296 295 294 294 295
287 287 288 287 287 287 287 287 287 288 290 292 292 293 293 292 292 292 293 292 292 292 292 292 291 290 290 290 291 291 292 293 293 292 292 292 293 293 293 293 292 291 289
287 287 287 286 286 286 285 285 286 286 286 285 286 287 289 291 291 291 289 289 289 289 290 289 289 290 289 288 289 289 290 290 290 290 291 291 291 290 289 287 286 285 283
286 286 285 284 283 284 284 283 283 284 284 284 283 283 283 283 284 286 287 288 287 288 288 287 286 285 285 284 283 283 283 284 285 286 287 285 283 282 281 280 280 280 280

GFSMW_850_thetae_108.txt.gz
Theta_e
318 318 319 318 318 319 319 317 314 315 313 311 323 329 323 315 330 332 332 335 332 331 331 324 323 325 325 325 328 329 332 333 334 332 331 331 329 330 329 328 327 327 324
318 317 317 316 316 317 318 319 320 319 317 318 317 326 330 331 328 333 333 329 333 332 332 329 323 325 327 326 327 326 329 331 330 331 330 329 329 328 328 328 327 325 325
316 315 314 313 313 313 313 316 317 318 320 320 317 319 329 331 332 332 328 318 319 329 333 333 328 324 326 324 323 325 326 330 330 330 330 328 327 328 328 328 327 326 325
313 312 311 311 311 310 310 311 313 316 318 318 320 322 325 330 331 331 328 320 317 325 332 333 332 326 327 326 324 325 326 329 330 329 329 328 327 328 327 326 327 327 327
311 310 309 309 309 309 309 309 311 312 315 318 318 321 322 328 331 332 332 332 324 325 331 331 333 328 326 327 325 326 329 328 330 326 328 328 328 329 326 327 326 326 326
310 309 307 307 307 306 308 311 312 312 314 317 318 319 322 322 331 331 332 335 336 332 333 333 334 332 327 328 328 329 329 327 328 328 328 327 328 328 327 326 326 327 326
308 306 305 304 304 304 304 308 311 312 313 315 317 318 319 322 326 332 333 334 336 338 334 335 332 333 330 328 330 330 328 329 329 327 327 327 328 327 327 326 327 326 327
307 305 303 302 302 301 301 304 308 311 314 315 317 318 320 322 324 328 331 333 335 334 335 335 334 331 331 330 332 332 331 330 327 327 327 326 326 326 325 325 325 325 324
304 303 302 300 299 299 298 304 307 309 311 314 316 320 324 325 325 330 331 331 334 334 335 337 336 334 332 331 330 331 332 330 326 326 327 326 326 326 325 325 324 325 325
303 301 300 299 297 296 298 302 302 305 308 312 316 321 326 327 328 332 330 331 333 334 332 333 334 333 332 326 326 330 330 327 325 326 326 326 325 326 327 325 325 324 324
301 300 299 298 296 295 297 300 302 304 306 308 318 323 329 330 329 329 328 330 331 331 333 330 330 334 330 327 326 327 327 325 326 326 324 325 325 325 324 324 323 323 323
300 299 297 296 295 294 297 299 302 304 303 310 315 322 324 327 327 330 330 330 329 332 331 332 332 333 330 327 327 327 325 326 326 324 325 324 323 323 324 323 326 323 323
298 297 296 295 294 294 298 299 299 299 302 306 312 318 323 324 327 327 330 328 329 331 329 331 330 332 330 328 327 326 325 324 324 323 323 323 322 323 323 322 322 322 322
296 295 294 294 294 294 294 295 297 298 299 303 306 313 319 322 323 322 324 326 326 327 328 328 328 329 328 326 325 324 323 323 324 324 323 323 322 321 322 322 323 322 322
293 293 293 292 292 293 293 294 295 296 300 301 304 306 308 315 316 322 322 322 325 325 324 325 326 327 326 324 323 323 322 322 322 321 321 320 320 321 321 321 321 321 322
291 291 291 291 290 290 291 293 294 295 297 299 300 302 307 309 313 318 321 323 322 324 324 325 325 325 323 322 323 322 321 320 320 320 320 320 321 320 320 321 321 322 321
289 289 290 289 290 291 291 292 293 295 296 297 299 302 300 304 306 307 313 315 316 319 322 321 323 323 323 321 319 319 319 319 320 319 319 319 318 318 319 319 320 320 321
288 289 289 290 291 292 293 293 293 294 295 295 295 298 300 301 302 303 303 302 304 303 305 310 315 315 318 318 318 319 320 319 318 317 317 317 318 317 317 317 317 319 319
288 288 288 289 291 292 292 293 294 294 294 294 294 294 295 297 298 300 301 301 301 303 303 302 310 309 311 313 319 319 319 316 316 314 314 314 315 315 315 313 316 315 316
288 288 289 290 290 291 292 293 293 293 292 292 292 293 294 295 295 296 297 299 301 301 300 299 299 299 303 309 308 310 312 313 312 310 309 309 309 309 309 309 311 312 312
287 288 288 289 290 291 291 291 291 291 291 293 293 294 293 293 293 294 295 295 295 297 297 298 298 296 297 298 300 302 303 303 302 301 301 301 301 302 303 305 306 307 303
287 286 286 286 286 287 289 290 291 290 292 292 293 293 293 293 293 294 293 294 295 295 294 295 294 294 294 294 295 297 298 298 299 299 298 298 297 298 298 299 298 298 298
285 285 285 285 284 285 284 284 286 288 290 292 291 292 292 292 292 293 293 292 292 292 292 292 291 291 291 292 293 293 294 295 295 294 294 294 295 295 295 295 294 295 295
284 284 284 283 283 283 283 283 283 283 284 285 286 286 286 288 288 289 288 289 288 288 288 288 289 290 290 291 291 292 292 292 292 291 292 293 293 293 292 292 292 293 292
283 283 283 283 282 282 282 282 282 282 283 283 283 283 283 283 283 283 283 284 284 284 284 283 283 283 283 284 285 286 288 289 290 290 290 290 291 291 291 291 290 289 289
282 282 282 282 281 281 281 281 282 282 282 282 282 282 282 282 282 282 280 280 280 281 281 282 282 281 281 281 282 282 283 284 285 285 285 284 284 284 284 283 282 283 283

GFSMW_850_thetae_111.txt.gz
Theta_e
317 320 320 320 321 321 321 321 321 321 322 323 323 320 329 332 334 336 338 340 340 340 338 338 333 327 324 323 325 335 334 335 334 335 332 331 331 331 331 331 330 330 327
319 319 318 318 318 318 318 318 318 319 320 321 323 324 321 327 329 333 335 336 340 339 337 334 330 329 325 323 324 331 335 335 335 332 331 331 330 330 330 330 330 329 328
318 317 316 316 315 315 315 315 315 316 316 318 319 322 323 322 329 331 332 333 336 337 334 334 332 333 328 324 324 327 331 335 335 332 330 329 329 329 328 329 330 329 328
316 315 315 314 313 313 313 313 313 313 313 314 316 319 321 324 321 327 330 332 334 337 335 334 332 335 332 328 324 327 331 332 330 332 331 330 330 329 329 328 329 329 329
315 314 313 312 311 311 311 310 310 310 310 311 313 314 316 319 324 324 331 331 332 333 332 337 335 336 334 332 328 327 331 330 329 328 328 330 329 329 329 329 330 328 327
314 313 311 310 310 309 309 308 307 307 308 310 312 313 313 314 317 322 326 334 332 334 333 333 336 336 336 333 331 328 327 326 330 330 328 330 329 329 329 328 327 328 328
312 311 310 309 308 307 306 306 305 306 309 310 311 313 313 313 314 316 321 329 333 332 333 332 332 335 337 335 333 331 332 329 332 331 331 329 329 328 328 329 328 328 328
310 309 308 307 306 304 304 303 303 307 309 310 310 312 315 315 315 317 318 324 331 332 334 331 332 337 338 338 335 333 331 328 332 331 330 331 329 329 330 330 328 327 328
308 307 306 305 304 303 302 300 298 303 304 307 309 310 313 314 315 317 319 321 327 332 335 332 333 334 335 336 335 334 333 332 332 331 331 330 330 329 328 327 326 327 325
307 306 305 304 302 301 300 298 297 300 303 305 307 310 313 314 317 319 321 322 327 330 333 334 333 331 334 335 333 334 333 333 333 332 332 329 328 328 327 326 326 326 325
305 304 303 302 301 298 297 296 299 300 302 304 307 310 311 313 317 324 326 326 329 330 332 332 332 331 333 333 334 336 335 333 331 330 329 328 328 327 326 325 325 325 326
304 303 302 300 298 296 295 293 295 297 301 302 304 307 308 314 321 323 323 327 328 331 330 332 332 331 329 331 334 335 334 330 330 329 327 326 325 326 325 325 325 325 325
302 301 300 298 296 295 293 291 292 297 300 302 302 302 306 317 323 323 320 322 328 328 327 331 330 330 331 331 334 332 327 325 321 320 326 327 326 325 325 324 324 324 324
299 298 298 297 295 293 291 291 294 295 296 298 299 300 307 312 317 321 323 324 326 327 328 329 328 329 331 330 331 331 328 323 321 324 326 325 324 324 325 325 324 324 323
297 296 295 294 293 291 290 292 294 294 294 295 298 301 304 306 311 315 320 323 324 325 326 327 327 329 329 330 329 330 328 326 325 326 325 324 323 323 322 322 321 321 321
294 293 292 291 290 291 290 290 291 293 293 293 295 296 300 303 304 309 315 320 322 323 323 326 327 327 328 328 327 326 326 324 325 324 323 323 322 320 320 321 320 320 320
292 290 290 290 290 290 289 289 289 291 292 293 294 296 297 301 301 302 306 305 312 317 320 321 323 325 324 325 324 324 323 322 321 322 320 319 320 320 320 318 319 318 320
289 289 289 289 290 289 290 289 289 290 292 293 292 292 293 296 298 300 301 300 302 304 305 305 307 312 312 321 322 322 323 322 320 319 318 318 318 318 317 317 316 315 317
288 288 289 289 289 289 290 290 291 290 290 291 290 291 292 293 295 297 296 298 300 300 300 299 297 302 304 305 313 315 316 316 314 314 315 316 317 317 316 315 315 314 315
288 288 289 288 290 290 290 291 291 291 290 290 290 292 292 292 292 292 293 293 295 295 298 298 297 298 299 300 305 306 304 304 305 306 305 314 313 314 313 310 310 309 309
288 288 287 285 286 289 291 291 291 290 290 292 292 293 293 292 292 293 293 293 293 294 294 296 296 297 297 297 298 300 300 300 300 303 303 301 302 302 303 303 304 304 302
287 288 287 286 285 284 285 286 288 288 289 290 291 292 292 293 294 294 293 293 293 293 293 293 292 292 292 293 294 296 297 296 297 297 297 297 297 298 299 300 299 298 298
287 286 286 286 285 285 285 284 284 284 285 285 285 285 286 286 286 287 288 289 290 292 292 292 291 291 291 291 292 293 294 295 294 293 292 293 294 294 294 294 294 295 295
286 286 285 285 285 284 284 284 285 284 284 284 285 285 284 283 283 284 284 284 284 284 284 284 284 285 287 289 290 291 291 291 291 290 291 292 292 293 292 292 293 293 293
285 285 284 284 283 283 283 283 283 285 285 284 284 285 284 285 284 282 281 281 281 282 283 282 282 283 283 283 284 285 286 288 290 290 291 291 291 291 291 290 290 289 288
284 284 284 283 282 282 282 282 282 282 283 284 283 283 283 283 283 284 283 280 280 281 281 281 282 281 281 281 282 282 282 282 282 283 283 282 282 282 282 282 282 283 283

GFSMW_850_thetae_114.txt.gz
Theta_e
319 321 321 321 321 321 321 320 320 321 321 320 321 324 321 327 333 337 339 340 340 340 339 339 339 337 335 328 335 339 339 335 336 335 335 333 332 332 332 331 331 331 330
320 320 319 318 318 317 317 316 316 317 318 319 321 321 322 320 324 332 336 335 338 340 340 340 341 339 337 332 328 338 337 334 334 336 335 333 332 331 328 330 330 330 330
320 319 317 317 316 315 315 314 314 314 314 314 315 317 320 321 318 322 329 334 337 337 339 339 340 339 339 336 331 331 333 329 333 334 332 330 329 330 329 330 330 330 330
317 317 316 315 314 313 312 312 312 311 311 312 312 313 315 317 319 323 324 328 333 331 334 335 339 338 338 337 333 333 328 329 331 333 333 330 327 329 330 329 329 329 330
316 315 314 312 312 311 310 310 309 309 309 310 311 312 313 314 314 317 320 323 328 332 331 334 335 339 336 336 335 334 333 329 328 329 329 333 331 330 330 331 330 330 329
315 314 312 311 310 309 307 307 306 306 307 308 310 311 311 313 315 316 315 318 320 329 334 333 331 330 333 334 337 335 335 332 328 331 331 329 331 329 329 328 330 330 329
312 311 310 309 308 307 305 305 304 304 304 305 307 309 311 312 313 314 315 316 317 320 329 332 331 331 332 330 333 335 335 334 332 333 331 330 328 329 329 328 328 328 328
309 309 308 307 306 305 304 303 302 303 305 305 307 308 309 310 311 313 313 314 317 317 321 329 331 333 334 331 331 333 334 335 333 333 331 328 330 328 328 326 326 328 329
307 307 306 305 304 303 301 300 299 300 302 304 305 307 308 309 309 310 311 315 316 317 318 325 330 329 334 333 329 330 333 333 334 333 330 327 325 330 329 328 328 329 328
306 305 304 303 302 300 298 297 296 296 299 300 302 303 305 306 307 309 312 315 317 319 318 319 330 331 333 333 329 332 332 331 333 333 329 325 328 327 330 330 330 328 327
305 304 303 302 300 298 296 295 295 296 297 298 299 300 301 304 306 307 313 316 317 320 319 318 327 330 332 332 332 332 331 331 331 333 330 327 324 321 330 328 327 326 326
303 302 301 300 298 296 294 294 295 295 296 298 298 299 301 304 306 310 316 319 323 326 326 322 326 330 328 330 330 330 331 331 330 333 332 331 329 329 328 327 327 326 326
301 300 299 298 296 294 292 293 292 293 296 296 297 299 301 305 306 309 314 319 321 323 325 327 329 329 327 327 330 329 330 330 331 331 331 330 329 328 328 327 326 326 326
299 298 296 295 293 291 291 291 290 291 293 294 295 297 299 299 303 308 310 313 318 319 319 320 326 327 328 330 329 329 329 330 330 331 329 327 326 327 327 326 326 325 324
297 295 294 292 291 290 291 290 289 290 291 292 293 295 297 299 302 304 308 313 314 315 317 322 326 327 326 328 328 328 328 329 330 330 327 327 327 327 326 325 323 323 324
294 293 291 290 290 290 289 289 289 289 289 290 290 293 296 298 299 301 305 306 313 316 319 325 325 327 327 326 327 327 329 330 329 328 327 326 325 325 324 324 323 322 322
291 290 289 289 290 290 289 289 288 289 289 289 291 291 292 294 296 298 301 302 303 307 307 313 317 320 323 327 328 328 328 327 326 325 324 324 324 324 322 322 321 320 320
289 289 289 289 290 290 290 289 289 290 289 289 290 291 291 291 293 295 296 297 300 302 300 302 306 311 312 316 324 323 325 324 324 323 320 322 322 320 322 320 319 317 315
288 288 288 289 290 290 289 290 290 291 290 289 290 291 291 292 291 291 292 293 295 296 297 298 300 301 299 303 305 314 304 317 315 313 314 315 318 316 319 318 316 315 313
288 288 288 289 290 290 290 290 290 291 290 290 290 291 292 292 291 291 291 291 293 294 294 295 296 297 297 298 301 304 300 300 301 301 300 301 305 303 308 310 313 311 311
288 287 286 285 284 284 285 286 287 286 285 286 288 291 292 292 293 292 293 293 292 293 294 293 293 292 292 294 297 299 300 300 300 298 298 296 300 299 300 300 303 304 303
288 287 286 286 285 285 285 284 284 285 285 284 283 284 285 285 285 286 287 289 292 293 292 292 292 292 292 293 293 295 295 295 297 295 294 294 295 294 295 297 296 296 298
286 286 286 285 285 285 285 285 285 285 285 285 285 285 283 283 284 284 284 285 284 284 284 285 288 290 290 291 291 292 293 292 291 291 291 292 293 293 292 292 293 294 294
286 286 285 285 284 284 284 285 286 285 284 285 284 284 285 285 283 283 282 283 283 283 282 283 282 282 283 284 286 289 291 291 291 291 292 292 292 292 292 293 293 293 292
285 285 284 283 283 282 283 283 283 284 284 284 284 283 283 284 284 283 282 281 279 280 281 280 281 281 281 280 281 282 283 284 286 288 289 290 291 291 291 290 290 289 288
285 284 283 282 282 282 282 282 282 282 283 283 283 283 283 283 282 283 283 282 281 280 279 279 280 279 279 280 280 280 281 281 281 282 282 282 281 281 281 282 282 283 284

GFSMW_850_thetae_120.txt.gz
Theta_e
320 321 321 321 320 320 319 318 317 315 314 314 313 313 313 315 320 329 330 325 330 335 336 335 331 336 334 334 334 337 338 336 337 337 337 336 335 335 333 332 332 331 330
317 317 318 318 317 316 315 314 313 313 313 313 312 312 313 315 316 315 317 324 325 328 332 334 335 333 330 333 334 333 334 333 331 336 337 337 337 335 334 333 331 330 329
314 314 314 313 313 313 312 312 311 311 311 311 311 311 311 311 311 312 314 316 317 323 325 327 330 333 335 330 325 332 333 333 332 333 334 332 333 333 331 331 331 330 329
312 311 310 311 311 309 310 310 310 309 309 309 309 310 310 310 310 311 311 311 312 315 317 319 323 328 333 333 333 333 330 332 329 326 332 332 329 329 330 331 331 331 329
309 308 308 308 308 308 307 306 305 305 305 306 306 306 308 308 309 310 310 311 311 311 311 313 315 318 324 329 333 333 333 332 328 326 324 329 331 330 326 324 324 327 326
306 305 305 306 304 303 302 302 302 303 304 305 305 306 306 307 308 308 309 310 311 311 311 312 312 313 316 321 328 332 331 332 331 329 326 324 330 329 328 325 323 321 321
305 305 304 303 302 301 300 301 303 303 304 305 305 306 306 307 307 308 309 310 310 311 311 312 313 313 313 314 318 327 331 331 331 330 327 326 328 329 329 329 327 326 325
303 303 302 301 299 299 300 301 302 303 304 304 305 305 305 305 306 306 308 309 310 311 312 313 313 313 314 314 314 316 330 332 331 330 328 328 327 327 329 331 329 329 328
303 302 301 300 299 299 300 301 302 303 303 302 302 303 304 304 305 305 305 307 309 311 312 313 314 313 314 314 315 315 320 330 330 331 328 326 326 328 331 332 330 328 328
301 301 301 299 297 297 297 297 298 299 299 299 299 300 301 302 302 303 305 305 306 308 309 311 312 313 314 316 317 317 316 327 330 329 329 326 325 329 329 328 331 330 327
298 297 297 296 295 295 298 298 297 296 296 296 297 297 299 300 300 301 302 303 305 307 309 310 313 315 316 317 317 318 318 321 328 327 329 328 326 326 328 329 327 330 329
298 297 295 295 295 295 296 294 293 292 292 293 294 295 296 297 298 299 301 302 304 306 308 311 312 315 317 318 318 318 320 318 327 326 327 327 326 329 327 329 328 329 329
294 294 294 294 294 292 291 291 291 292 292 292 292 292 293 294 295 296 298 300 301 302 303 305 309 311 313 317 318 319 320 318 325 328 326 321 323 327 329 328 329 329 328
293 291 290 289 290 291 291 291 291 291 291 291 291 290 290 290 290 292 294 296 297 299 299 300 303 306 311 314 317 319 319 317 323 328 325 324 323 325 330 329 329 327 327
291 290 289 289 291 291 291 292 292 291 291 291 290 289 289 289 289 290 292 293 294 295 296 297 299 303 308 313 318 320 320 319 322 327 324 324 324 326 330 328 327 327 327
290 288 287 290 290 291 292 292 293 293 292 291 290 290 290 289 289 290 290 291 292 294 293 294 295 298 305 309 315 319 323 323 322 323 324 324 326 329 329 328 326 326 326
287 287 290 290 291 291 292 292 292 292 292 293 292 292 292 290 289 289 289 290 290 291 290 291 294 295 297 301 307 319 320 319 321 322 323 322 326 327 327 327 327 326 326
286 288 289 290 290 291 292 290 288 288 290 292 293 293 292 291 290 290 289 289 289 290 290 291 291 293 295 297 300 311 314 311 315 312 316 320 322 325 327 326 325 325 326
287 288 288 289 288 286 284 284 284 284 284 284 285 286 290 291 291 291 290 290 290 291 290 290 292 292 294 297 300 302 302 301 302 300 301 303 309 311 314 316 322 323 324
287 287 287 286 285 285 285 285 285 284 283 282 282 284 284 283 284 286 288 289 289 289 290 291 291 291 293 297 300 302 302 300 298 298 300 300 300 303 302 302 306 306 309
286 286 285 286 285 285 285 285 285 285 284 283 283 283 283 283 283 283 283 283 283 283 284 286 289 291 290 291 294 296 297 296 298 296 296 297 296 298 301 299 301 302 298
286 285 285 285 286 286 285 285 285 284 284 284 284 283 283 282 283 283 283 283 284 284 283 283 283 283 286 289 291 292 293 294 295 293 293 294 296 296 297 298 297 299 298
286 285 285 285 285 285 285 284 284 283 283 283 283 283 283 283 283 283 283 283 282 282 282 282 282 282 282 282 283 285 289 291 292 291 291 292 293 294 295 294 295 295 296
285 285 284 283 283 284 284 283 283 283 283 283 283 282 283 283 283 281 280 281 281 281 280 281 281 281 281 281 282 282 283 283 285 288 290 292 292 293 292 293 293 292 292
285 283 282 282 282 283 283 283 282 282 283 283 282 282 282 282 281 281 280 279 278 279 279 279 279 280 280 279 280 281 281 281 282 282 283 283 283 283 284 285 287 288 289
283 282 282 281 281 282 282 282 282 282 282 282 282 281 281 280 280 280 279 279 278 278 278 278 278 278 277 278 279 279 280 281 281 282 282 281 280 280 280 280 281 281 282

GFSMW_850_thetae_123.txt.gz
Theta_e
318 318 316 316 316 318 318 318 317 317 316 315 314 313 313 314 315 317 319 321 324 323 327 332 329 326 325 329 331 331 333 334 333 332 333 333 333 334 334 335 334 333 332
317 315 314 314 313 312 312 312 312 312 312 312 312 312 312 312 312 312 312 313 315 317 321 324 329 328 326 326 324 333 328 332 330 332 333 331 332 334 334 336 334 332 331
310 308 308 309 310 309 308 308 307 307 308 309 309 309 310 310 310 310 311 311 311 311 312 314 317 321 324 330 330 330 329 331 332 332 329 329 332 332 332 331 333 333 331
306 305 305 306 306 305 305 304 303 303 304 305 305 306 306 306 306 307 307 308 309 310 310 311 311 314 318 322 327 330 331 330 327 329 332 325 326 325 324 327 328 329 331
304 303 302 302 301 301 301 301 302 302 303 303 303 303 304 304 304 304 305 305 305 307 309 310 311 311 312 313 316 322 329 332 328 326 330 329 324 324 324 325 325 327 327
302 302 301 301 301 300 300 300 301 301 302 303 303 304 304 305 305 305 306 306 306 306 307 309 310 310 311 311 312 313 320 326 332 331 330 330 327 326 324 323 321 326 326
305 306 303 303 302 301 301 301 301 302 302 302 302 303 304 305 305 306 306 307 307 308 308 309 310 310 310 311 312 312 313 316 327 333 329 328 328 325 326 323 323 325 326
304 304 304 306 305 304 302 301 301 301 300 302 303 302 302 303 303 304 305 305 306 307 308 309 311 312 312 312 312 312 312 313 314 328 331 330 329 328 327 324 323 326 327
304 302 301 301 301 300 301 301 301 300 299 300 299 299 299 300 301 302 303 303 304 304 306 308 310 311 313 314 314 313 313 313 314 316 330 330 330 328 327 326 327 328 328
300 299 298 298 296 296 295 296 295 294 294 294 295 296 295 296 298 298 300 300 301 301 302 307 309 309 310 311 312 313 313 314 314 315 320 330 330 329 329 327 326 327 327
298 297 296 294 294 294 294 294 293 294 295 294 293 292 293 294 295 296 295 296 298 299 302 304 307 309 310 311 311 310 312 315 316 317 316 320 329 329 329 328 325 325 328
296 296 296 296 296 295 295 294 294 294 293 291 292 292 292 293 291 292 293 295 297 298 300 302 304 306 308 310 311 311 314 315 316 318 318 317 326 328 326 328 325 324 327
294 294 293 294 294 293 294 293 293 292 291 290 290 291 291 290 289 290 291 293 295 297 298 299 301 303 305 306 309 310 313 316 317 318 319 318 319 328 326 325 327 325 326
292 290 292 293 292 292 292 291 292 292 291 291 291 290 290 290 290 290 290 291 292 293 294 295 297 299 302 302 305 308 312 313 315 317 319 318 319 327 327 322 325 324 326
290 289 289 291 291 291 291 292 292 293 292 291 291 292 291 290 290 290 290 290 290 290 291 292 293 293 295 297 304 310 312 315 316 316 317 317 319 325 325 323 321 323 324
289 288 289 290 289 290 290 291 291 292 292 293 293 293 292 292 291 291 290 290 290 290 290 290 289 290 291 295 300 307 310 314 317 316 317 319 322 323 323 323 322 323 324
288 287 288 288 288 288 286 284 284 285 287 291 293 293 293 293 292 292 293 292 292 292 291 289 288 288 290 292 297 301 304 310 313 314 317 318 320 322 323 323 325 325 325
287 287 287 286 285 284 284 283 283 284 285 285 285 286 289 292 293 293 293 292 292 291 290 290 290 290 291 293 297 299 298 299 303 305 306 310 313 315 320 323 325 325 325
287 286 285 285 285 285 285 285 284 284 284 284 284 284 284 285 285 285 286 289 292 290 289 289 291 291 291 293 295 294 296 297 299 301 301 302 304 303 309 307 312 317 321
286 285 285 285 285 285 285 285 285 284 283 283 283 283 284 284 284 283 283 284 284 283 283 284 288 289 290 290 292 294 295 296 297 298 297 297 299 300 303 304 301 304 305
286 286 286 286 285 285 285 285 285 284 284 283 283 283 283 283 283 283 283 283 284 283 283 282 282 282 284 288 290 292 293 294 295 293 293 294 297 298 299 299 300 301 299
285 285 286 286 285 285 284 284 283 283 283 283 283 283 283 283 282 283 283 283 283 283 283 283 282 282 282 282 283 286 290 291 292 290 290 291 294 296 297 297 297 297 298
285 285 285 285 286 285 283 283 283 283 283 283 283 283 282 282 282 282 282 282 281 281 281 281 281 281 281 281 281 281 282 283 287 289 289 291 292 293 294 294 295 296 296
285 285 284 284 284 283 283 283 283 283 283 283 282 282 281 282 281 281 281 281 280 280 279 279 279 279 280 281 281 281 282 282 282 282 283 283 284 286 288 291 292 292 292
285 283 282 282 283 283 283 282 283 283 282 282 281 281 281 281 280 280 279 278 278 278 278 278 278 278 278 278 278 279 280 281 281 282 283 284 283 283 282 282 282 283 284
283 282 281 281 282 282 282 282 282 282 281 281 281 280 280 280 279 279 278 277 277 276 276 276 276 276 276 277 278 278 279 279 280 282 281 280 280 279 279 279 279 280 281